Regional Weather Roundup
Issued by NWS

Home | Current Version | Previous Version | Graphics & Text | Print | Product List | Glossary On
Versions: 1 2 3 4 5 6 7 8 9 10 11 12 13 14 15 16 17 18 19 20 21 22 23 24 25 26 27 28 29 30 31 32 33 34 35 36 37 38 39 40 41 42 43 44 45 46 47 48 49 50
000
ASUS43 KDTX 191510
RWRMI
MICHIGAN HOURLY REGIONAL WEATHER ROUNDUP
NATIONAL WEATHER SERVICE DETROIT/PONTIAC MI
1100 AM EDT SAT APR 19 2014

NOTE: "FAIR" INDICATES FEW OR NO CLOUDS BELOW 12,000 FEET WITH NO
SIGNIFICANT WEATHER AND/OR OBSTRUCTION TO VISIBILITY.

MIZ047>049-052>055-059>063-066>070-074>076-081>083-191600-
SOUTHEAST LOWER MICHIGAN

CITY           SKY/WX    TMP DP  RH WIND       PRES   REMARKS
ADRIAN         SUNNY     47  28  47 E15       30.45S
ALMA           SUNNY     42  33  69 E9G16     30.48F
ANN ARBOR      SUNNY     47  28  47 NE9       30.45S
BAD AXE        MOSUNNY   41  32  70 NE10G16   30.50R
DETROIT CITY   SUNNY     47  30  51 NE8       30.47S
DETROIT        MOSUNNY   47  28  47 NE10G18   30.47S
FLINT          SUNNY     47  30  51 NE9       30.48R
GROSSE ILE     SUNNY     46  32  57 NE13      30.45S
HILLSDALE      SUNNY     48  30  50 E12       30.42S
HOWELL         SUNNY     45  28  51 NE10      30.45S

CITY           SKY/WX    TMP DP  RH WIND       PRES   REMARKS
JACKSON        SUNNY     47  25  42 E8        30.44S
LAMBERTVILLE   SUNNY     46  32  57 E14       30.45S
LANSING        SUNNY     45  29  53 E9        30.47R
LAPEER         NOT AVBL
MASON          SUNNY     44  31  61 E7        30.46S
MONROE         SUNNY     46  32  57 NE10G17   30.44S
MT. CLEMENS    SUNNY     45  34  64 E7        30.46S
PONTIAC        MOSUNNY   45  26  47 NE10      30.46R
PORT HOPE        N/A     37  31  78 NE12      30.50R
PORT HURON     SUNNY     41  32  70 NE9       30.48S
TRI CITIES     MOSUNNY   44  33  65 E7        30.49F
YPSILANTI      SUNNY     50  28  42 NE13      30.46S
$$
MIZ043>046-050>051-056>058-064>065-071>073-077>080-191600-
SOUTHWEST LOWER MICHIGAN

CITY           SKY/WX    TMP DP  RH WIND       PRES   REMARKS
BATTLE CREEK   SUNNY     46  30  53 E9        30.44R
BENTON HARBOR  SUNNY     48  34  58 E12       30.40S
BIG RAPIDS     MOSUNNY   44  30  59 E12       30.45S
COLDWATER      SUNNY     47  32  54 E10       30.42F
HOLLAND        SUNNY     47  32  56 E12       30.43F
GRAND RAPIDS   MOSUNNY   45  30  55 E15       30.45S
KALAMAZOO      SUNNY     47  31  53 E7        30.43S
MARSHALL       SUNNY     45  27  49 E7        30.43S
MUSKEGON       MOSUNNY   47  27  45 SE16      30.43F
$$
MIZ016>042-191600-
NORTHERN LOWER MICHIGAN

CITY           SKY/WX    TMP DP  RH WIND       PRES   REMARKS
ALPENA         SUNNY     41  26  55 SE12      30.51F
BEAVER ISLAND  MOSUNNY   39  29  69 E10       30.47F
BELLAIRE       SUNNY     45  28  50 SE10      30.47S
CADILLAC       MOSUNNY   42  29  61 E12       30.42F
CHARLEVOIX     MOSUNNY   41  30  65 E12       30.49F
FRANKFORT      MOSUNNY   44  28  54 SE14      30.42F
GAYLORD        SUNNY     40  27  59 SE8       30.45F
GRAYLING       SUNNY     42  26  54 SE6       30.47S
HARBOR SPRINGS SUNNY     41  29  64 E13       30.47S
HOUGHTON LAKE  SUNNY     43  28  55 E12       30.47F
MANISTEE       MOSUNNY   45  27  49 SE9G17    30.43F
OSCODA         SUNNY     41  30  65 E10       30.51S
PELLSTON       SUNNY     40  27  59 SE13      30.50F
TRAVERSE CITY  PTSUNNY   44  27  51 SE12      30.45F
$$
MIZ007>008-015-191600-
EASTERN UPPER MICHIGAN

CITY           SKY/WX    TMP DP  RH WIND       PRES   REMARKS
KINROSS        SUNNY     36  30  80 SE10      30.49S
MACKINAC ISLAN SUNNY     33  32  94 E13       30.49F
NEWBERRY       PTSUNNY   37  27  68 SE12      30.46S
S. S. MARIE    SUNNY     37  25  61 SE12      30.49F
$$
MIZ004>006-011>014-085-191600-
CENTRAL UPPER MICHIGAN

CITY           SKY/WX    TMP DP  RH WIND       PRES   REMARKS
MANISTIQUE       N/A     32  30  91 SE9G16    30.45F
ESCANABA       MOSUNNY   36  30  80 SE13      30.43F
MENOMINEE      MOSUNNY   36  30  80 SE9       30.42S
SAWYER-GWINN   SUNNY     36  28  75 S17G23    30.37F
$$
MIZ001>003-009>011-084-191600-
WESTERN UPPER MICHIGAN

CITY           SKY/WX    TMP DP  RH WIND       PRES   REMARKS
IRON MOUNTAIN  MOSUNNY   37  26  64 S17G23    30.35F
HOUGHTON       CLOUDY    33  25  72 E14       30.32S
COPPER HARBOR    N/A     34  28  79 S8G20     30.38R
IRONWOOD       CLOUDY    39  21  48 SE15G25   30.15F
$$

ABBREVIATIONS USED IN REMARKS
   TC - TEMPERATURE IN CELSIUS
  WCI - WIND CHILL INDEX
   HX - HEAT INDEX
  VSB - VISIBILITY




USA.gov is the U.S. government's official web portal to all federal, state and local government web resources and services.